Other Public Products
Issued by NWS Grand Forks, ND

Home | Current Version | Previous Version | Text Only | Print | Product List | Glossary On
Versions: 1 2 3 4 5 6 7 8 9 10 11 12 13 14 15 16 17 18 19 20 21 22 23 24 25 26 27 28 29 30 31 32 33 34 35 36 37 38 39 40 41 42 43 44 45 46 47 48 49 50
000
FPUS83 KFGF 070210
OPUFGF
PRAIRIE TO PINES WEATHER ROUNDUP
NATIONAL WEATHER SERVICE EASTERN NORTH DAKOTA/GRAND FORKS ND
900 PM CDT MON JUL 06 2015

 **SATELLITE DATA USED TO AUGMENT SKY COVER AT AUTOMATED STATIONS**
 *****  WEATHER ACROSS EASTERN NORTH DAKOTA  *****

CITY           SKY/WX    TMP DP  RH WIND       PRES   REMARKS
GRAND FORKS    CLEAR     58  47  66 N6        30.12S
GRAND FORKS AF CLEAR     58  48  70 N6        30.13S
GRAND CITY NWS   N/A     57 N/A N/A N2          N/A
BUXTON         NOT AVBL
DEVILS LAKE    CLEAR     61  46  59 NE7       30.13S
FARGO          CLEAR     61  46  57 N13       30.10S
WAHPETON ARPT  CLEAR     59  45  58 N7        30.10R
$$

 *****  WEATHER ACROSS CENTRAL AND WESTERN NORTH DAKOTA  *****

CITY           SKY/WX    TMP DP  RH WIND       PRES   REMARKS
JAMESTOWN      CLEAR     61  47  59 N9        30.12S
BISMARCK       PTCLDY    64  50  60 NE8       30.15F
MINOT          CLEAR     62  49  62 N3        30.15S
MINOT AFB      CLEAR     66  46  47 N5        30.14F
GARRISON         N/A     63  50  62 NE5       30.15F
WILLISTON      CLEAR     67  47  48 NE9       30.16S
DICKINSON      CLEAR     63  52  67 NE7       30.15S HAZE
HETTINGER      PTCLDY    64  54  69 NE8       30.17R
$$

 *****  OTHER OBSERVATIONS NORTHEAST NORTH DAKOTA  *****

CITY           SKY/WX    TMP DP  RH WIND       PRES   REMARKS
WALHALLA       FAIR      59  48  67 MISG      30.14S
LANGDON        FAIR      59  48  67 N6        30.15F
CAVALIER       FAIR      59  48  67 NW3       30.13S
GRAFTON        FAIR      59  50  72 NW6       30.13F
CANDO          FAIR      57  46  67 N6        30.15S
FORT TOTTEN    NOT AVBL
ROLLA          FAIR      59  46  63 N3        30.16F
RUGBY          NOT AVBL
 ***** THE ABOVE OBSERVATIONS ARE NON NWS ARE NOT QUALITY
        CONTROLLED AND MAY MIS-REPORT RAIN FOR SNOW...
$$

 *****  OTHER OBSERVATIONS SOUTHEAST NORTH DAKOTA *****

CITY           SKY/WX    TMP DP  RH WIND       PRES   REMARKS
COOPERSTOWN    NOT AVBL
VALLEY CITY    FAIR      59  48  67 N8        30.12S
OAKES            N/A     61  52  72 N8        30.12R
GWINNER        FAIR      63  48  59 N9        30.11S
SHEYENNE NWR     N/A     63  49  61 N5        29.95S
BUFFALO        NOT AVBL
WYNDMERE         N/A     63  48  59 N8          N/A
 ***** THE ABOVE OBSERVATIONS ARE NON NWS ARE NOT QUALITY
       CONTROLLED AND MAY MIS-REPORT RAIN FOR SNOW...
$$

  *****  WEATHER ACROSS NORTHERN MINNESOTA  *****

CITY           SKY/WX    TMP DP  RH WIND       PRES   REMARKS
FLAG ISLAND    CLEAR     61  45  55 N8        30.06S
WARROAD        MOCLDY    57  52  82 CALM      30.09F
ROSEAU         CLEAR     57  50  77 CALM      30.10S
HALLOCK        CLEAR     59  50  72 NW5       30.12R
THF RVR FALLS  CLOUDY    59  45  58 N9        30.11S
HALSTAD        NOT AVBL
FOSSTON        CLOUDY    55  45  67 N9        30.11S
BAUDETTE       CLOUDY    57  45  64 N5        30.07S
WASKISH        CLOUDY    55  46  71 N5        30.08S
CROOKSTON      PTCLDY    57  48  72 N6        30.12S
$$
  *****  WEATHER ACROSS CENTRAL AND WEST MINNESOTA  *****

CITY           SKY/WX    TMP DP  RH WIND       PRES   REMARKS
BEMIDJI        CLOUDY    56  46  69 NW9       30.07S
PARK RAPIDS    MOCLDY    59  43  55 N9        30.08R
WADENA         PTCLDY    57  45  62 N8        30.07S
DETROIT LAKES  CLEAR     59  45  58 N5        30.11R
MOORHEAD       CLEAR     61  46  59 N10       30.11S
FERGUS FALLS   CLEAR     61  46  59 N8        30.09R
ELBOW LAKE     FAIR      60  46  60 N10       30.08R
MORRIS MN      CLEAR     61  48  63 N9        30.08R
STAPLES        CLEAR     55  45  67 N7        30.07R
WHEATON        CLEAR     59  48  67 N8        30.11R
$$
  *****  WEATHER ELSEWHERE ACROSS MINNESOTA  *****

CITY           SKY/WX    TMP DP  RH WIND       PRES   REMARKS
DULUTH         MOCLDY    59  45  59 N9        29.99R
INTRNTL FALLS  CLOUDY    56  43  61 N9        30.05S
ELY            CLOUDY    54  43  66 N8        30.01S
CLOQUET        CLOUDY    59  45  58 NW10      30.01R
BRAINERD       CLOUDY    60  44  55 NW16      30.05R
HIBBING        CLOUDY    57  45  64 N14       30.02R
ALEXANDRIA     CLEAR     59  46  62 N14       30.08S
SAINT CLOUD    CLEAR     59  48  67 NW8       30.05R
MINNEAPOLIS    MOCLDY    67  51  56 N13G23    30.00R
$$

  *****  WEATHER ACROSS SOUTH DAKOTA  *****

CITY           SKY/WX    TMP DP  RH WIND       PRES   REMARKS
SIOUX FALLS    CLEAR     64  54  69 NE10      30.09R
BROOKINGS      CLEAR     63  52  67 N6        30.11R
WATERTOWN      PTCLDY    62  51  67 NE8       30.10R
HURON          PTCLDY    66  55  67 NE8       30.09R HAZE
SISSETON         N/A     62  49  62 N10       30.08S
ABERDEEN       CLEAR     65  53  65 N8        30.11R
MITCHELL       CLEAR     65  58  78 N5        30.09R HAZE
PIERRE         CLEAR     67  56  67 N6        30.10R
MOBRIDGE       CLEAR     67  58  72 NE7       30.10S HAZE
RAPID CITY     CLOUDY    67  57  70 NW5       30.18S
$$

  *****  SOME WEATHER IN NEARBY STATES *****

CITY           SKY/WX    TMP DP  RH WIND       PRES   REMARKS
GLASGOW MT     CLEAR     71  43  36 SE9       30.11S
GREAT FALLS MT SUNNY     71  48  43 NE10      30.08S
CHEYENNE WY    CLOUDY    57  52  83 E7        30.28F HAZE
SCOTTSBLUFF NE CLOUDY    66  57  72 N3        30.21S HAZE
OMAHA NE       CLOUDY    70  62  76 N8        29.99R HAZE
DES MOINES IA  CLOUDY    71  60  68 N13       29.93R HAZE
DAVENPORT IA   LGT RAIN  71  69  93 S8        29.86F
CHICAGO IL     TSTM      73  70  90 W21G26    29.88R FOG
EAU CLAIRE WI  CLOUDY    61  57  87 N5        29.94S FOG
LA CROSSE WI   CLOUDY    65  57  75 N13       29.93R HAZE
$$

  *****  SOME NATIONAL WEATHER *****

CITY           SKY/WX    TMP DP  RH WIND       PRES   REMARKS
LA GUARDIA NY  MOCLDY    76  64  66 SE9       30.10R
RALEIGH NC     PTCLDY    79  67  66 SW7       30.07S
ATLANTA GA     PTCLDY    78  70  76 SW5       30.11S
NEW ORLEANS LA PTCLDY    83  75  77 S8        30.04F HX  90
OKLAHOMA CITY  CLOUDY    82  71  69 S6        29.90R
ALBUQUERQUE NM MOCLDY    74  56  53 E15       30.09R
SALT LAKE CITY MOCLDY    80  60  50 S9        30.04S
LOS ANGELES CA CLOUDY    65  60  84 W10       29.97S
BOISE ID       MOSUNNY   89  49  25 W10       29.93F
SEATTLE WA     PTSUNNY   82  52  35 W8        29.97S
$$

*** WEATHER ACROSS MANITOBA...SASKATCHEWAN AND ONTARIO ***
                ***ONTARIO***

CITY           SKY/WX    TMP DP  RH WIND       PRES   REMARKS
GERALDTON      MOCLDY    54  45  71 NW7       29.89R
THUNDER BAY    PTCLDY    55  46  71 NW9G18    29.94R
SIOUX LOOKOUT  CLOUDY    54  45  71 NW6       30.03S
TORONTO        MOCLDY    72  64  78 SE9       29.95F
BIG TROUT LK   CLOUDY    54  45  71 NW7       29.91S
PICKLE LAKE    CLOUDY    52  43  71 NW6       29.99S
DRYDEN         CLOUDY    54  45  71 NW5       30.04S
KENORA         NOT AVBL
$$
                *** MANITOBA***

CITY           SKY/WX    TMP DP  RH WIND       PRES   REMARKS
BRANDON        CLEAR     61  48  63 NW3       30.14S
DAUPHIN        CLEAR     61  48  63 SE6       30.10F
ISLAND LAKE    PTCLDY    64  48  55 W6        29.96F
PILOT MOUND      N/A     59  48  67 NE2         N/A
THE PAS        PTCLDY    70  43  37 SW7       30.01F
THOMPSON       CLEAR     68  46  45 SW6       29.91F
WINNIPEG       PTCLDY    57  48  72 W7        30.11F
LYNN LAKE      HAZE      68  45  42 SW7       29.87F VSB 1
CHURCHILL      MOCLDY    57  48  72 E8        29.79F
GILLAM         MOCLDY    64  54  68 N22G33    29.88R
$$
                ***SASKATCHEWAN***

CITY           SKY/WX    TMP DP  RH WIND       PRES   REMARKS
ESTEVAN        CLEAR     64  43  45 E2        30.16F
KINDERSLEY     MOSUNNY   66  52  59 S5        30.06F
LLOYDMINSTER   MOSUNNY   66  48  52 SE7       30.04F
PRINCE ALBERT  PTSUNNY   61  50  67 E3        30.05F
REGINA         MOCLDY    64  46  52 NE6       30.13F


USA.gov is the U.S. government's official web portal to all federal, state and local government web resources and services.